Theta_e
310 311 312 318 313 313 318 318 316 318 319 328 329 330 329 331 333 332 331 338 337 336 336 334 333 330 325 320 323 330 333 335 335 336 335 335 335 335 335 335 335 336 337 337 336 337 335 318 317
310 312 316 317 313 315 316 315 318 317 323 322 323 325 326 328 331 329 325 331 331 333 335 331 327 324 322 318 319 321 321 320 319 318 318 318 320 325 330 333 335 335 334 335 336 337 335 335 321
310 314 319 311 311 315 316 316 315 315 324 319 323 322 322 322 324 318 318 323 331 324 321 320 319 318 317 316 317 318 317 316 316 314 314 313 313 313 313 314 316 321 327 333 334 334 336 337 334
312 315 315 313 316 315 316 314 314 314 315 318 322 317 319 321 320 317 315 315 316 317 317 317 316 315 314 313 315 316 317 316 314 313 312 311 311 311 312 312 312 312 313 315 318 328 333 333 335
316 317 312 315 315 315 313 314 314 314 314 315 319 316 315 315 314 314 315 315 314 315 314 314 314 313 313 312 312 313 315 315 312 312 312 313 313 312 311 311 310 310 311 312 312 313 314 317 328
316 315 313 315 315 314 314 315 315 313 314 315 317 315 315 314 314 314 314 313 313 312 312 312 312 312 312 311 311 312 313 311 312 313 313 313 311 311 312 312 312 312 312 311 311 311 310 310 312
313 311 313 313 313 315 314 315 314 313 313 313 317 313 313 312 312 311 310 311 311 311 311 311 311 311 311 311 311 311 311 312 312 313 312 313 314 314 314 313 313 313 312 311 311 311 311 311 311
319 311 314 312 312 314 314 315 314 314 313 312 313 312 312 313 313 312 312 311 311 310 309 309 309 309 310 311 312 312 313 313 314 313 312 313 314 315 314 313 312 313 312 312 312 312 315 315 314
316 311 313 313 312 314 314 313 314 313 312 311 312 314 314 314 313 312 311 311 310 309 309 309 309 309 310 313 315 315 316 315 314 315 315 312 313 314 314 313 312 313 313 313 314 314 315 314 315
311 309 311 313 312 312 313 314 313 312 310 311 312 313 313 312 312 311 311 310 309 308 309 309 310 311 312 315 317 316 318 317 316 317 317 313 312 313 313 313 312 316 314 315 315 315 315 314 314
312 311 313 314 313 313 313 312 311 309 309 310 311 311 311 311 311 310 310 309 308 309 310 309 311 312 313 315 317 317 317 317 318 317 314 313 313 314 313 313 312 315 316 317 316 314 314 314 314
313 313 314 314 313 313 311 311 311 310 311 312 311 312 312 311 310 310 309 308 309 310 310 309 311 314 315 316 317 317 317 317 317 315 313 313 314 314 313 312 311 313 316 315 314 313 314 315 315
312 312 313 312 311 312 312 311 310 311 313 313 311 312 312 311 311 310 309 309 309 310 309 309 310 313 315 317 316 317 316 316 313 312 313 313 314 314 313 312 312 313 313 313 314 312 313 315 315
311 311 311 310 310 311 310 311 311 311 312 311 312 311 311 311 311 310 310 309 310 310 310 309 309 310 310 314 314 314 313 312 312 314 314 314 314 315 314 313 312 313 314 315 314 312 312 313 315
311 310 310 311 312 311 311 308 310 311 311 311 310 310 311 312 311 310 310 309 310 310 310 310 309 309 310 309 310 311 311 313 315 316 316 316 315 314 312 312 311 310 312 314 313 312 313 314 314
310 308 309 311 311 310 308 305 311 311 311 310 310 311 311 311 311 311 310 309 309 310 310 310 310 309 309 310 310 311 311 313 314 315 314 314 315 314 310 309 310 310 311 312 313 313 313 314 314
305 305 308 313 310 309 308 307 310 311 310 310 310 311 311 311 310 310 309 308 308 309 309 309 309 309 310 311 312 312 313 314 314 314 314 312 312 311 310 311 310 311 312 313 313 313 313 312 312
305 307 309 312 309 309 308 307 307 309 310 310 309 310 311 310 310 309 308 308 308 308 309 309 308 308 308 308 308 310 311 311 311 310 309 311 311 310 307 307 308 308 308 309 310 310 309 311 311
306 308 309 310 309 309 307 306 307 309 309 308 309 309 310 310 309 309 309 308 308 308 309 309 308 307 307 307 307 307 307 307 307 307 307 308 306 305 305 306 305 305 304 304 305 305 305 306 307
309 309 311 310 309 309 309 308 307 308 308 309 309 308 310 309 309 309 309 308 308 309 308 308 307 306 306 307 307 307 307 307 307 307 306 306 305 305 305 305 304 303 303 303 304 305 305 305 307
308 308 309 312 309 308 309 307 309 308 308 307 308 309 310 309 309 309 308 309 309 310 309 308 307 306 307 307 307 306 306 306 305 305 304 303 303 303 302 301 301 301 301 301 301 301 302 302 302
310 308 309 310 306 307 307 304 304 308 309 307 307 308 309 309 309 310 311 311 311 311 308 307 306 306 306 306 306 306 305 305 304 303 302 301 301 301 301 301 301 301 300 300 300 300 300 301 301
310 308 309 309 307 309 307 307 305 307 308 308 307 308 309 310 310 311 312 311 309 307 307 306 306 306 306 305 305 305 305 304 302 301 300 300 300 300 301 301 301 301 301 299 298 298 298 298 298
306 309 308 306 306 309 307 306 307 307 308 307 307 309 310 311 311 311 310 308 305 305 306 306 306 306 305 305 305 304 303 302 301 300 300 299 299 299 299 300 300 300 300 300 300 298 297 296 296
307 307 308 310 308 310 308 308 307 308 306 306 307 310 308 310 308 308 307 305 305 305 306 306 305 305 305 304 304 303 302 301 300 299 299 298 298 299 299 300 300 300 300 299 297 297 296 296 296
307 306 306 307 312 311 307 310 310 304 304 305 308 310 307 306 306 306 305 305 306 306 305 305 305 305 304 304 303 302 301 300 299 298 298 298 299 300 300 300 299 299 298 297 297 296 296 295 295
308 309 307 306 305 308 308 305 305 303 302 303 304 307 305 306 306 305 306 306 305 305 305 305 305 304 303 302 301 300 300 300 300 301 300 300 300 300 299 298 297 298 299 297 296 296 296 295 294
307 305 308 305 308 312 308 308 307 305 305 302 302 304 305 306 306 307 306 305 305 305 305 305 304 303 301 300 300 300 300 300 300 300 300 300 300 300 300 299 299 298 298 298 297 297 296 294 294
307 308 306 305 305 308 306 307 303 304 302 302 302 305 306 307 306 305 304 304 305 305 304 304 304 303 302 301 300 300 300 300 299 299 299 299 298 298 298 299 298 297 297 297 296 296 294 293 293
305 307 307 307 307 304 303 306 300 300 302 303 303 305 305 304 303 303 303 303 303 303 303 303 302 301 299 298 297 295 296 295 293 292 292 292 292 294 296 297 298 297 296 296 295 294 294 293 292
Wind_Speed
10 7 6 2 4 5 0 3 1 3 3 8 11 10 10 7 2 4 9 8 6 4 2 5 8 10 11 7 6 5 5 5 5 5 6 6 7 8 8 8 8 8 8 8 8 9 10 10 10
8 5 2 2 4 3 4 2 4 2 10 12 10 8 7 3 8 8 6 6 4 3 1 4 5 8 10 9 6 4 4 5 5 5 6 7 7 8 9 9 10 11 10 9 10 11 10 11 11
6 4 1 4 3 4 4 3 5 6 12 2 5 10 5 3 8 6 8 9 8 5 3 0 4 7 11 7 5 4 4 5 6 8 9 9 10 10 10 11 11 12 13 13 13 12 12 13 13
3 1 4 4 2 2 4 6 5 7 6 4 13 7 6 5 4 7 7 7 6 5 3 2 2 6 8 6 5 5 5 6 7 7 7 8 8 9 9 10 11 11 12 11 13 15 16 16 15
2 1 4 3 1 0 1 6 8 3 4 5 4 4 6 11 11 7 5 5 5 5 4 4 4 5 7 5 5 4 5 5 6 6 7 7 7 8 8 8 8 9 10 11 13 13 14 16 18
1 2 4 3 2 0 0 4 5 4 4 6 7 8 6 10 9 7 7 8 7 7 7 7 8 6 6 5 5 5 3 4 5 6 6 8 9 10 10 10 10 10 11 12 12 13 15 18 18
5 4 4 5 5 2 4 5 7 7 6 3 11 5 8 10 9 7 6 5 6 8 8 8 7 6 5 3 5 3 3 4 5 7 7 9 11 13 12 13 12 12 12 13 14 15 15 15 16
2 4 4 3 6 5 5 5 6 6 3 7 5 6 6 13 10 8 5 5 4 5 5 4 3 4 2 2 7 7 7 7 8 8 10 9 10 11 12 13 13 12 13 15 16 18 17 16 16
3 4 2 5 7 3 8 4 4 6 10 4 4 8 10 15 11 8 6 4 3 2 1 0 1 4 5 5 8 8 6 7 8 9 11 11 10 9 11 13 14 15 12 15 16 17 16 17 17
4 4 6 1 2 4 7 3 8 5 8 5 12 15 16 13 10 8 6 4 3 4 4 4 4 6 7 5 5 6 5 6 8 9 11 13 10 9 11 13 14 13 11 16 20 20 21 19 19
3 4 3 1 1 7 7 5 3 10 3 9 18 19 15 12 11 9 7 5 5 5 5 5 5 5 5 4 3 2 3 3 3 8 11 10 11 11 12 13 14 14 12 16 20 20 20 20 20
3 2 1 3 2 4 6 6 3 5 3 6 13 16 15 13 10 8 7 6 5 5 5 6 7 6 5 5 4 4 3 3 6 9 9 9 12 12 12 13 13 14 14 16 20 18 17 18 18
3 3 3 3 3 6 6 3 2 4 6 9 20 16 14 12 11 9 8 7 6 5 5 6 7 7 5 4 3 2 1 4 7 6 7 10 12 13 15 15 13 14 15 16 18 18 19 18 20
4 4 4 2 3 3 2 1 2 5 15 19 18 16 14 11 10 10 10 8 7 6 5 6 6 6 5 5 4 3 4 5 3 5 9 12 13 15 16 15 15 16 17 16 19 20 21 20 21
10 3 2 3 3 2 2 3 5 8 19 18 17 16 15 12 9 7 8 7 6 6 6 5 5 5 4 4 4 2 1 2 4 6 9 12 14 16 16 16 17 17 17 18 20 21 22 22 21
4 4 2 2 6 2 3 6 1 11 23 19 18 18 17 13 9 10 8 7 7 6 5 5 4 4 4 3 2 1 2 3 6 9 11 14 15 17 18 17 18 18 18 19 21 23 22 22 22
4 3 4 2 8 4 3 4 2 15 21 19 20 19 17 14 13 12 9 8 8 7 5 4 4 4 4 3 1 1 3 5 7 11 14 15 17 17 16 16 17 17 18 19 20 20 21 22 23
7 4 3 4 5 3 3 7 3 13 20 21 20 18 18 16 14 11 10 10 8 7 6 6 4 3 2 1 1 1 4 8 10 13 14 14 15 17 17 16 16 16 17 18 18 20 19 20 22
6 3 4 1 3 3 5 6 6 11 14 18 20 19 20 18 14 12 11 10 9 8 7 4 4 3 3 2 1 1 2 5 8 11 13 15 16 15 14 14 14 14 15 16 18 21 19 19 23
2 3 1 1 2 2 0 9 5 7 12 25 25 23 23 19 17 15 12 12 10 8 7 5 5 4 3 3 2 3 4 6 9 12 14 14 15 14 14 13 13 14 14 14 15 17 21 20 20
1 4 4 2 1 0 3 7 2 3 4 13 20 22 24 22 20 16 14 13 10 8 7 5 4 4 3 2 4 5 6 9 11 12 12 12 12 12 11 11 12 14 15 16 17 17 18 22 18
4 4 4 4 3 3 2 5 5 3 3 4 14 21 25 21 18 17 14 12 10 8 6 5 5 3 1 2 4 6 9 12 14 14 14 12 11 12 12 13 14 16 17 18 19 19 19 19 22
3 3 4 3 4 2 1 2 7 1 5 6 12 22 24 21 20 18 14 10 8 8 7 6 4 2 1 4 6 9 12 14 14 14 13 12 11 12 14 15 17 18 19 20 20 21 20 20 20
6 6 7 5 3 1 3 5 5 5 6 4 11 22 22 21 19 17 13 10 8 9 7 5 3 2 4 7 10 14 14 15 14 15 14 14 14 14 16 17 18 20 21 22 23 24 23 22 21
4 6 2 3 2 5 1 3 8 2 3 5 15 25 21 22 20 17 13 11 10 8 5 3 3 4 8 11 14 16 15 15 15 16 17 18 18 18 19 21 22 24 24 25 25 25 25 24 24
5 6 5 7 4 3 2 6 5 2 4 7 15 28 22 19 17 13 11 10 8 5 3 2 4 7 10 12 14 14 14 15 16 17 18 20 21 23 24 26 27 27 27 27 27 27 27 27 26
5 4 3 7 3 2 3 6 1 4 6 6 16 26 22 19 16 13 11 7 6 5 3 3 6 7 9 11 11 11 12 14 17 19 22 24 26 27 28 30 32 33 32 30 30 30 31 31 30
2 4 3 2 3 4 4 5 5 2 3 5 11 23 20 17 15 12 10 9 7 6 6 7 6 6 7 7 8 11 12 15 18 21 24 27 30 32 33 34 36 34 35 34 33 33 33 34 34
3 2 4 4 3 4 1 5 4 5 8 9 12 18 19 17 14 12 9 5 4 5 6 7 8 10 13 14 14 15 18 21 24 27 30 32 36 38 38 35 34 31 29 30 31 34 34 35 36
2 5 5 4 5 1 3 6 3 5 10 13 15 15 16 16 14 12 8 5 3 2 3 6 9 11 11 14 17 21 27 30 34 36 36 38 38 34 34 34 35 31 30 29 33 36 36 36 37
Wind_Direction
325 332 332 331 54 65 113 192 262 104 74 67 95 110 109 57 90 173 109 115 127 185 251 334 345 349 345 336 330 335 337 343 344 341 333 331 322 320 313 314 314 320 314 315 317 310 314 312 300
320 332 313 90 89 78 267 277 142 146 137 109 82 90 52 75 92 118 127 158 135 178 284 6 360 345 340 331 332 338 344 350 350 345 334 328 317 309 311 309 308 301 305 304 300 295 299 300 302
316 337 328 92 105 160 184 201 165 122 154 105 102 79 79 92 98 108 117 135 146 146 147 300 338 339 333 326 326 331 340 343 339 333 330 326 325 322 321 320 313 309 305 300 295 292 287 285 283
307 273 61 86 155 221 188 178 171 127 101 94 123 69 85 128 111 129 125 134 165 184 197 225 330 331 329 328 313 312 315 320 326 332 337 335 334 331 328 326 321 315 313 311 302 295 288 281 283
258 48 59 83 137 138 194 167 157 108 97 105 140 136 103 122 130 142 176 199 228 240 256 277 299 315 323 340 357 328 310 323 340 355 1 6 4 358 350 344 338 329 322 318 309 309 304 295 283
159 77 69 162 229 81 252 171 154 115 104 121 107 113 135 144 152 182 215 237 249 265 272 281 290 296 310 334 1 360 349 356 14 21 23 14 15 21 22 21 15 9 0 352 342 327 314 296 294
128 90 190 161 179 184 205 160 140 137 120 82 137 99 145 156 164 190 215 247 263 273 275 272 270 278 293 339 12 51 57 49 42 40 34 33 36 30 27 20 12 8 9 3 356 346 329 314 308
130 93 115 170 183 218 176 125 132 135 139 130 155 165 173 169 175 199 220 247 258 261 267 264 251 238 244 62 70 77 77 68 67 47 35 29 27 29 21 13 13 10 8 5 2 358 356 350 330
130 67 177 199 156 201 167 125 142 127 134 132 126 146 156 167 180 203 222 242 258 210 162 127 107 130 136 100 93 95 79 64 42 27 19 8 11 11 10 7 3 360 2 4 4 6 6 360 355
99 113 214 200 181 181 161 154 149 144 133 88 124 135 150 168 185 206 212 207 159 125 110 117 104 115 131 125 104 89 74 40 21 9 355 349 349 356 359 358 357 358 354 357 0 2 4 359 353
139 172 176 116 92 160 134 127 151 142 217 190 171 158 162 171 182 192 181 163 147 125 107 115 135 126 138 132 130 102 96 53 17 349 347 355 345 345 350 349 352 355 350 351 354 356 357 354 349
130 93 130 146 119 126 141 147 149 197 223 198 180 165 162 167 171 173 168 155 140 127 128 127 143 152 146 124 133 129 96 47 341 336 345 349 352 345 342 344 348 350 348 346 349 351 350 351 346
123 139 108 125 129 117 142 139 179 221 170 154 160 166 166 166 166 164 163 154 146 135 126 142 150 170 170 169 160 146 320 313 320 327 338 341 343 345 344 341 338 341 342 340 347 345 345 344 340
125 118 123 157 136 120 146 217 180 203 157 152 165 174 177 175 170 169 166 160 153 142 130 133 147 152 163 186 200 246 283 294 315 344 344 341 338 338 339 335 332 327 331 333 337 338 337 339 336
119 86 9 216 163 115 142 279 226 183 176 169 176 179 174 175 177 184 169 169 161 150 138 139 143 146 145 151 174 187 285 303 323 328 330 328 324 327 330 325 324 324 322 324 329 332 334 334 332
77 57 154 215 150 146 129 270 77 186 178 176 176 176 175 179 183 182 186 186 175 168 155 148 126 129 139 144 166 249 300 295 312 315 318 319 319 321 320 318 317 317 318 316 320 327 328 330 332
6 204 199 248 199 126 158 263 84 173 182 182 183 183 181 177 178 186 190 189 189 180 170 164 167 165 152 142 132 359 316 306 308 312 312 310 310 314 317 317 316 316 315 316 317 321 323 327 327
191 204 213 214 206 154 164 258 264 192 201 201 191 190 187 186 186 185 183 188 190 184 184 190 179 162 157 145 177 287 308 314 316 314 314 313 313 313 315 314 314 314 314 314 315 319 323 326 324
140 160 164 225 179 146 221 257 241 210 208 205 199 197 194 190 184 179 181 186 190 190 193 189 174 155 138 141 93 26 322 318 325 321 317 316 319 322 322 323 324 324 325 326 326 323 325 327 332
127 138 176 17 143 147 257 270 231 200 219 211 200 198 195 188 183 185 193 194 191 193 192 191 172 153 127 100 82 48 14 351 336 327 320 318 318 318 322 326 333 337 337 337 335 334 332 335 339
107 161 185 165 125 329 342 289 257 202 207 207 206 205 193 192 189 191 191 191 191 192 188 183 168 144 114 66 30 9 355 344 328 318 315 316 320 324 328 334 335 339 339 338 338 334 331 328 334
169 169 124 124 109 222 40 271 288 228 204 187 198 197 188 189 191 189 185 187 195 202 199 181 170 157 121 24 3 355 345 330 320 319 320 319 318 317 322 328 331 332 332 330 329 327 324 321 321
171 105 103 89 91 42 278 78 268 22 242 218 186 183 184 189 191 190 188 193 202 199 189 182 177 188 321 344 344 338 328 318 315 315 312 308 308 310 313 318 321 322 323 324 324 322 321 319 314
139 76 48 55 74 18 238 151 274 191 212 177 185 187 186 185 185 185 187 194 194 186 183 186 205 266 314 327 328 324 319 314 311 309 305 303 304 308 311 313 315 317 317 316 315 315 315 314 311
77 82 11 356 5 218 67 119 245 260 246 193 186 189 183 182 181 184 190 187 183 188 192 211 253 316 329 323 319 321 318 314 312 310 308 308 309 311 313 314 314 314 313 313 311 308 305 305 304
177 155 160 200 194 238 306 231 262 18 312 262 204 186 175 176 180 182 183 183 185 189 198 246 311 325 322 323 323 320 318 318 317 313 310 310 312 314 316 315 314 313 311 310 308 306 305 303 300
186 190 161 105 5 53 236 296 324 33 21 73 151 167 167 171 177 178 174 176 180 188 222 281 310 317 322 327 328 333 335 332 326 321 315 311 308 310 312 310 311 309 305 302 303 304 304 301 299
153 162 88 352 138 244 286 278 242 199 193 139 140 157 164 167 164 166 176 186 204 229 253 267 268 284 299 304 301 300 301 300 300 299 299 299 299 300 303 305 306 301 298 297 300 304 304 302 299
147 195 60 117 139 169 225 258 215 214 197 173 164 161 160 160 160 163 171 181 211 248 248 240 250 267 275 281 281 289 293 294 295 295 295 293 293 295 293 289 291 289 291 295 300 304 302 298 295
183 186 157 133 214 152 147 268 342 306 195 167 157 157 155 152 148 149 152 165 196 200 234 255 268 279 285 288 290 295 302 303 304 305 302 299 299 302 299 295 287 277 279 289 303 299 295 293 291